(487727) = 2013 AX99 = 2015 RS93

Discovered at Cima Ekar on 2002-03-10 by ADAS.

Orbit

Orbit type: Main Belt

Note: WebGL enabled browser required.

epoch2023-09-13.0
epoch JD2460200.5
perihelion date2023-08-31.37585
perihelion JD2460187.87585
argument of perihelion (°)30.95420
ascending node (°)353.06968
inclination (°)8.77245
eccentricity0.1282492
perihelion distance (AU)2.1312169
Tisserand w.r.t. Jupiter3.5
ΔV w.r.t. Earth (km/sec)9.5
semimajor axis (AU)2.4447548
mean anomaly (°)3.25502
mean daily motion (°/day)0.25784040
aphelion distance (AU)2.758
period (years)3.82
P-vector [x]0.91264984
P-vector [y]0.33683939
P-vector [z]0.23153726
Q-vector [x]-0.40832785
Q-vector [y]0.77684371
Q-vector [z]0.47935604
absolute magnitude17.53
phase slope0.15
uncertainty0
referenceMPEC 2024-A48
observations used274
oppositions9
arc length (days)7968
first opposition used2002
last opposition used2024
residual rms (arc-secs)0.62
perturbers coarse indicatorM-v
perturbers precise indicator003Ek
first observation date used2002-03-10.0
last observation date used2024-01-03.0
computer nameMPCLINUX
JD of orbit computation2457807.356290
perihelion JD uncertainty (days)1.0593E-04
argument of perihelion uncertainty (°)3.6263E-05
ascending node uncertainty (°)2.0802E-05
inclination uncertainty (°)6.2034E-06
eccentricity uncertainty 5.6413E-08
perihelion distance uncertainty (AU)1.2712E-07
Minimum Orbit Intersection Distances (in AU)
for orbit epoch: 2460200.5, reference: E2024-A48
Mercury1.79302
Venus1.4144
Earth1.13772
Mars0.71852
Jupiter2.71804
Saturn6.67234
Uranus15.7447
Neptune27.7216

Observations

277 total observations over interval: 2002 03 10.96448 – 2024 01 03.240597
These data are available for download (format description).

Date (UT) J2000 RA J2000 Dec Magn Location Ref
2002 03 10.96448 11 24 10.06 +04 45 41.3 20.8 C 209 – Asiago Observatory, Cima Ekar-ADAS MPS 628894
2002 03 10.98545 11 24 08.78 +04 45 44.9 21.0 C 209 – Asiago Observatory, Cima Ekar-ADAS MPS 628894
2002 03 11.00656 11 24 07.36 +04 45 49.0 21.3 C 209 – Asiago Observatory, Cima Ekar-ADAS MPS 628894
2011 08 03.43905 21 24 49.347 -25 47 34.18 20.1 r F51 – Pan-STARRS 1, Haleakala MPS 628894
2011 08 03.46289 21 24 47.739 -25 47 36.71 21.0 g F51 – Pan-STARRS 1, Haleakala MPS 628894
2011 08 03.47306 21 24 47.056 -25 47 37.45 21.0 g F51 – Pan-STARRS 1, Haleakala MPS 628894
2013 01 08.36032 08 30 55.72 +31 31 01.5 20.5 V G96 – Mt. Lemmon Survey MPS 451118
2013 01 08.36514 08 30 55.36 +31 31 02.2 21.2 V G96 – Mt. Lemmon Survey MPS 451118
2013 01 08.36992 08 30 55.04 +31 31 03.1 20.6 V G96 – Mt. Lemmon Survey MPS 451118
2013 01 08.37471 08 30 54.75 +31 31 03.7 20.7 V G96 – Mt. Lemmon Survey MPS 451118
2013 01 09.30772 08 29 52.00 +31 33 37.4 20.8 V 703 – Catalina Sky Survey MPS 451118
2013 01 09.31562 08 29 51.54 +31 33 39.0 21.1 V 703 – Catalina Sky Survey MPS 451118
2013 01 09.32367 08 29 50.85 +31 33 38.5 20.6 V 703 – Catalina Sky Survey MPS 451118
2013 01 09.33183 08 29 50.24 +31 33 41.7 20.2 V 703 – Catalina Sky Survey MPS 451118
2014 04 28.11008 14 17 17.82 -24 19 53.1 21.2 V W84 – Cerro Tololo-DECam MPS 791047
2014 04 28.11342 14 17 17.60 -24 19 52.6   W84 – Cerro Tololo-DECam MPS 791047
2014 04 28.11677 14 17 17.38 -24 19 52.1   W84 – Cerro Tololo-DECam MPS 791047
2014 04 28.12003 14 17 17.17 -24 19 51.6   W84 – Cerro Tololo-DECam MPS 791047
2014 04 28.12340 14 17 16.95 -24 19 51.1   W84 – Cerro Tololo-DECam MPS 791047
2014 04 29.10384 14 16 14.55 -24 17 14.1 21.2 V W84 – Cerro Tololo-DECam MPS 791047
2014 04 29.10707 14 16 14.34 -24 17 13.6   W84 – Cerro Tololo-DECam MPS 791047
2014 04 29.11029 14 16 14.13 -24 17 13.1   W84 – Cerro Tololo-DECam MPS 791047
2014 04 29.11353 14 16 13.91 -24 17 12.5   W84 – Cerro Tololo-DECam MPS 791047
2014 04 29.11680 14 16 13.70 -24 17 12.1   W84 – Cerro Tololo-DECam MPS 791047
2014 04 29.40226 14 15 55.458 -24 16 28.94 21.4 w F51 – Pan-STARRS 1, Haleakala MPS 628894
2014 04 29.41285 14 15 54.741 -24 16 27.28 21.2 w F51 – Pan-STARRS 1, Haleakala MPS 628894
2014 04 29.42343 14 15 54.032 -24 16 25.54 21.1 w F51 – Pan-STARRS 1, Haleakala MPS 628894
2014 05 02.18335 14 12 59.05 -24 08 15.0 20.8 V W84 – Cerro Tololo-DECam MPS 791047
2014 05 02.18655 14 12 58.84 -24 08 14.4   W84 – Cerro Tololo-DECam MPS 791047
2014 05 02.18973 14 12 58.63 -24 08 13.9   W84 – Cerro Tololo-DECam MPS 791047
2014 05 02.19292 14 12 58.43 -24 08 13.3   W84 – Cerro Tololo-DECam MPS 791047
2015 08 09.49448 23 26 38.551 -08 50 29.59 20.3 i F52 – Pan-STARRS 2, Haleakala MPS 628894
2015 08 09.50730 23 26 38.110 -08 50 29.26 19.9 i F52 – Pan-STARRS 2, Haleakala MPS 628894
2015 08 09.52027 23 26 37.682 -08 50 29.03 20.2 i F52 – Pan-STARRS 2, Haleakala MPS 628894
2015 08 14.48868 23 23 42.007 -08 50 47.82 20.5 w F51 – Pan-STARRS 1, Haleakala MPS 628894
2015 08 14.50095 23 23 41.487 -08 50 48.02 20.6 w F51 – Pan-STARRS 1, Haleakala MPS 628894
2015 08 14.51319 23 23 40.964 -08 50 48.30 20.1 w F51 – Pan-STARRS 1, Haleakala MPS 628894
2015 08 14.52542 23 23 40.442 -08 50 48.41 20.3 w F51 – Pan-STARRS 1, Haleakala MPS 628894
2015 08 16.71942 23 22 09.43 -08 51 37.2 19.3 R D29 – Purple Mountain Observatory, XuYi Station MPS 628894
2015 08 16.73618 23 22 08.72 -08 51 38.6 19.6 R D29 – Purple Mountain Observatory, XuYi Station MPS 628894
2015 08 16.75293 23 22 07.93 -08 51 38.5 19.2 R D29 – Purple Mountain Observatory, XuYi Station MPS 628894
2015 08 21.46724 23 18 26.971 -08 54 24.80 20.1 w F51 – Pan-STARRS 1, Haleakala MPS 628894
2015 08 21.47949 23 18 26.323 -08 54 25.29 20.5 w F51 – Pan-STARRS 1, Haleakala MPS 628894
2015 08 21.49174 23 18 25.669 -08 54 25.84 20.3 w F51 – Pan-STARRS 1, Haleakala MPS 628894
2015 09 09.32336 22 59 57.437 -09 09 58.00 19.7 w F51 – Pan-STARRS 1, Haleakala MPS 628894
2015 09 09.33550 22 59 56.645 -09 09 58.55 19.9 w F51 – Pan-STARRS 1, Haleakala MPS 628894
2015 09 09.34758 22 59 55.852 -09 09 58.96 20.2 w F51 – Pan-STARRS 1, Haleakala MPS 628894
2015 09 09.35966 22 59 55.063 -09 09 59.49 19.6 w F51 – Pan-STARRS 1, Haleakala MPS 628894
2015 09 11.29958 22 57 53.05 -09 11 03.2 20.1 r G45 – Space Surveillance Telescope, Atom Site MPS 628894
2015 09 11.30501 22 57 52.72 -09 11 02.8 20.1 r G45 – Space Surveillance Telescope, Atom Site MPS 628894
2015 09 11.31218 22 57 52.21 -09 11 03.6 19.3 r G45 – Space Surveillance Telescope, Atom Site MPS 628894
2015 09 11.31744 22 57 51.90 -09 11 04.5 19.8 r G45 – Space Surveillance Telescope, Atom Site MPS 628894
2015 09 15.24827 22 53 49.40 -09 12 18.6 20.3 r G45 – Space Surveillance Telescope, Atom Site MPS 628894
2015 09 15.25369 22 53 49.06 -09 12 18.7 20.6 r G45 – Space Surveillance Telescope, Atom Site MPS 628894
2015 09 15.25881 22 53 48.71 -09 12 18.4 20.4 r G45 – Space Surveillance Telescope, Atom Site MPS 628894
2015 09 15.26390 22 53 48.43 -09 12 18.7 20.7 r G45 – Space Surveillance Telescope, Atom Site MPS 628894
2015 09 15.26899 22 53 48.09 -09 12 18.6 19.8 r G45 – Space Surveillance Telescope, Atom Site MPS 628894
2015 10 09.20279 22 35 25.16 -08 43 15.8 20.6 V G96 – Mt. Lemmon Survey MPS 628802
2015 10 09.20685 22 35 25.02 -08 43 15.5 21.1 V G96 – Mt. Lemmon Survey MPS 628802
2015 10 09.21092 22 35 24.89 -08 43 14.3 20.3 V G96 – Mt. Lemmon Survey MPS 628802
2015 10 09.21497 22 35 24.77 -08 43 14.2 20.0 V G96 – Mt. Lemmon Survey MPS 628802
2015 10 09.55493 22 35 16.05 -08 42 17.1 20.3 R D29 – Purple Mountain Observatory, XuYi Station MPS 631663
2015 10 09.58315 22 35 15.20 -08 42 13.0 20.5 R D29 – Purple Mountain Observatory, XuYi Station MPS 631663
2015 10 16.26624 22 33 07.888 -08 20 28.06 20.9 w F51 – Pan-STARRS 1, Haleakala MPS 639244
2015 10 16.27834 22 33 07.706 -08 20 25.40 20.4 w F51 – Pan-STARRS 1, Haleakala MPS 639244
2015 10 16.29045 22 33 07.523 -08 20 22.73 20.3 w F51 – Pan-STARRS 1, Haleakala MPS 639244
2015 10 16.30257 22 33 07.342 -08 20 20.03 20.7 w F51 – Pan-STARRS 1, Haleakala MPS 639244
2015 11 03.21563 22 34 42.366 -06 53 22.27 21.0 w F51 – Pan-STARRS 1, Haleakala MPS 642251
2015 11 03.24449 22 34 42.920 -06 53 12.03 21.3 w F51 – Pan-STARRS 1, Haleakala MPS 642251
2015 11 03.25842 22 34 43.206 -06 53 06.99 20.9 w F51 – Pan-STARRS 1, Haleakala MPS 642251
2015 12 01.21204 22 55 08.358 -03 24 41.23 21.7 w F51 – Pan-STARRS 1, Haleakala MPS 653614
2015 12 01.22370 22 55 09.060 -03 24 35.20 21.1 w F51 – Pan-STARRS 1, Haleakala MPS 653614
2015 12 01.23538 22 55 09.773 -03 24 29.14 21.7 w F51 – Pan-STARRS 1, Haleakala MPS 653614
2015 12 01.24703 22 55 10.455 -03 24 22.83 21.7 w F51 – Pan-STARRS 1, Haleakala MPS 653614
2017 01 04.47809 10 12 41.338 +20 13 01.61 21.5 w F51 – Pan-STARRS 1, Haleakala MPS 755950
2017 01 04.48971 10 12 41.064 +20 13 03.24 21.9 w F51 – Pan-STARRS 1, Haleakala MPS 755950
2017 01 04.50132 10 12 40.767 +20 13 04.59 21.1 w F51 – Pan-STARRS 1, Haleakala MPS 755950
2017 01 04.51298 10 12 40.480 +20 13 06.35 21.2 w F51 – Pan-STARRS 1, Haleakala MPS 755950
2017 01 28.30190 09 55 30.89 +21 24 14.9 21.0 V G96 – Mt. Lemmon Survey MPS 762304
2017 01 28.30671 09 55 30.58 +21 24 15.4 20.8 V G96 – Mt. Lemmon Survey MPS 762304
2017 01 28.31174 09 55 30.29 +21 24 16.6 21.1 V G96 – Mt. Lemmon Survey MPS 762304
2017 01 28.31672 09 55 29.95 +21 24 17.6 20.9 V G96 – Mt. Lemmon Survey MPS 762304
2017 01 28.34442 09 55 28.24 +21 24 23.4 20.7 V G96 – Mt. Lemmon Survey MPS 762304
2017 01 28.34936 09 55 27.97 +21 24 24.5 22.1 V G96 – Mt. Lemmon Survey MPS 762304
2017 01 28.35966 09 55 27.30 +21 24 25.9 20.7 V G96 – Mt. Lemmon Survey MPS 762304
2017 01 28.38604 09 55 25.886 +21 24 31.45 21.1 w F51 – Pan-STARRS 1, Haleakala MPS 762304
2017 01 28.39835 09 55 25.125 +21 24 33.91 21.4 w F51 – Pan-STARRS 1, Haleakala MPS 762304
2017 01 28.41052 09 55 24.351 +21 24 36.35 20.9 w F51 – Pan-STARRS 1, Haleakala MPS 762304
2017 01 28.42271 09 55 23.597 +21 24 38.82 20.8 w F51 – Pan-STARRS 1, Haleakala MPS 762304
2017 01 31.43050 09 52 16.46 +21 33 59.5 21.4 V G96 – Mt. Lemmon Survey MPS 762304
2017 01 31.43784 09 52 16.01 +21 34 00.8 20.7 V G96 – Mt. Lemmon Survey MPS 762304
